Weather History for Caldwell, ID

Change the Weather History Date:

Friday, February 21, 2014

  Actual Average (KBOI) Record (KBOI)
Temperature  
Mean Temperature 40 °F 38 °F  
Max Temperature 51 °F 47 °F 63 °F (1991)
Min Temperature 28 °F 29 °F 6 °F (1894)
Degree Days  
Heating Degree Days 26 27  
Month to date heating degree days 618  
Since 1 July heating degree days 3979  
Cooling Degree Days 0 0  
Month to date cooling degree days 0  
Year to date cooling degree days 0  
Moisture  
Dew Point 25 °F    
Average Humidity 58    
Maximum Humidity 80    
Minimum Humidity 33    
Precipitation  
Precipitation 0.00 in 0.04 in 0.72 in (1948)
Month to date precipitation 0.73  
Year to date precipitation 1.97  
Snow  
Snow 0.00 in 0.10 in 1.90 in (1993)
Month to date snowfall 2.3  
Since 1 July snowfall 17.1  
Snow Depth -    
Sea Level Pressure  
Sea Level Pressure 30.10 in    
Wind  
Wind Speed 4 mph (NW)    
Max Wind Speed 17 mph    
Max Gust Speed 22 mph    
Visibility 10 miles    
Events      
T = Trace of Precipitation, MM = Missing Value Source: NWS Daily Summary

Daily Weather History Graph

Daily Weather History Graph

Search for Another Location

Airport:

Trip Planner

Search our weather history database for the weather conditions in past years. The results will help you decide how hot, cold, wet, or windy it might be!

Date:

Astronomy

Feb. 21, 2014 Rise Set
Actual Time 7:35 AM MST 6:25 PM MST
Civil Twilight 7:06 AM MST 6:54 PM MST
Nautical Twilight 6:33 AM MST 7:27 PM MST
Astronomical Twilight 6:00 AM MST 8:00 PM MST
Moon 12:35 AM MST (2/21) 10:50 AM MST (2/21)
Length of Visible Light 11h 47m
Length of Day
10h 49m
Waning Gibbous, 60% of the Moon is Illuminated
Feb 21
Waning Gibbous
Feb 22
Last Quarter
Mar 1
New
Mar 8
First Quarter
Mar 16
Full

Hourly Weather History & Observations

Time (MST) Temp. Windchill Dew Point Humidity Pressure Visibility Wind Dir Wind Speed Gust Speed Precip Events Conditions
12:15 AM 33.8 °F 29.6 °F 26.6 °F 75% 30.15 in 10.0 mi East 4.6 mph - N/A   Overcast
12:35 AM 33.8 °F 30.8 °F 26.6 °F 75% 30.15 in 10.0 mi ENE 3.5 mph - N/A   Overcast
12:55 AM 33.8 °F - 26.6 °F 75% 30.15 in 10.0 mi Calm Calm - N/A   Overcast
1:15 AM 33.8 °F - 26.6 °F 75% 30.15 in 10.0 mi Calm Calm - N/A   Overcast
1:35 AM 33.8 °F 30.8 °F 26.6 °F 75% 30.15 in 10.0 mi East 3.5 mph - N/A   Mostly Cloudy
1:55 AM 33.8 °F 30.8 °F 24.8 °F 70% 30.15 in 10.0 mi ESE 3.5 mph - N/A   Mostly Cloudy
2:15 AM 33.8 °F - 26.6 °F 75% 30.15 in 10.0 mi Calm Calm - N/A   Partly Cloudy
2:35 AM 32.0 °F - 24.8 °F 75% 30.15 in 10.0 mi Calm Calm - N/A   Partly Cloudy
2:55 AM 30.2 °F 26.7 °F 24.8 °F 80% 30.16 in 10.0 mi SE 3.5 mph - N/A   Clear
3:15 AM 30.2 °F - 24.8 °F 80% 30.16 in 10.0 mi Calm Calm - N/A   Clear
3:35 AM 30.2 °F - 24.8 °F 80% 30.16 in 10.0 mi Calm Calm - N/A   Partly Cloudy
3:55 AM 30.2 °F 24.3 °F 23.0 °F 75% 30.15 in 10.0 mi SSE 5.8 mph - N/A   Clear
4:15 AM 30.2 °F 25.4 °F 23.0 °F 75% 30.15 in 10.0 mi East 4.6 mph - N/A   Clear
4:35 AM 30.2 °F 26.7 °F 23.0 °F 75% 30.15 in 10.0 mi SE 3.5 mph - N/A   Clear
4:55 AM 30.2 °F 25.4 °F 23.0 °F 75% 30.15 in 10.0 mi ESE 4.6 mph - N/A   Clear
5:15 AM 30.2 °F 24.3 °F 21.2 °F 69% 30.15 in 10.0 mi SSE 5.8 mph - N/A   Clear
5:35 AM 30.2 °F - 21.2 °F 69% 30.15 in 10.0 mi Calm Calm - N/A   Clear
5:55 AM 30.2 °F - 21.2 °F 69% 30.15 in 10.0 mi Calm Calm - N/A   Clear
6:15 AM 30.2 °F - 21.2 °F 69% 30.15 in 10.0 mi Calm Calm - N/A   Clear
6:35 AM 28.4 °F - 21.2 °F 74% 30.14 in 10.0 mi Calm Calm - N/A   Clear
6:55 AM 28.4 °F 22.2 °F 21.2 °F 74% 30.14 in 10.0 mi ENE 5.8 mph - N/A   Clear
7:15 AM 30.2 °F 26.7 °F 21.2 °F 69% 30.14 in 10.0 mi NNW 3.5 mph - N/A   Clear
7:35 AM 30.2 °F - 21.2 °F 69% 30.14 in 10.0 mi Calm Calm - N/A   Clear
7:55 AM 30.2 °F 25.4 °F 21.2 °F 69% 30.14 in 10.0 mi East 4.6 mph - N/A   Clear
8:15 AM 30.2 °F - 21.2 °F 69% 30.15 in 10.0 mi Calm Calm - N/A   Clear
8:35 AM 32.0 °F 27.5 °F 23.0 °F 69% 30.15 in 10.0 mi ENE 4.6 mph - N/A   Clear
8:55 AM 32.0 °F - 24.8 °F 75% 30.14 in 10.0 mi Calm Calm - N/A   Clear
9:15 AM 37.4 °F - 26.6 °F 65% 30.15 in 10.0 mi Calm Calm - N/A   Clear
9:35 AM 35.6 °F 31.7 °F 26.6 °F 70% 30.15 in 10.0 mi North 4.6 mph - N/A   Clear
9:55 AM 35.6 °F 31.7 °F 26.6 °F 70% 30.15 in 10.0 mi North 4.6 mph - N/A   Clear
10:15 AM 39.2 °F 35.0 °F 28.4 °F 65% 30.15 in 10.0 mi NNW 5.8 mph - N/A   Clear
10:35 AM 41.0 °F 36.4 °F 28.4 °F 61% 30.15 in 10.0 mi NW 6.9 mph - N/A   Clear
10:55 AM 42.8 °F 38.6 °F 28.4 °F 57% 30.15 in 10.0 mi WNW 6.9 mph - N/A   Clear
11:15 AM 44.6 °F 38.4 °F 28.4 °F 53% 30.15 in 10.0 mi West 12.7 mph - N/A   Clear
11:35 AM 46.4 °F 39.8 °F 26.6 °F 46% 30.15 in 10.0 mi West 16.1 mph - N/A   Clear
11:55 AM 46.4 °F 39.5 °F 26.6 °F 46% 30.14 in 10.0 mi West 17.3 mph 21.9 mph N/A   Clear
12:15 PM 46.4 °F 40.4 °F 26.6 °F 46% 30.15 in 10.0 mi WNW 13.8 mph - N/A   Clear
12:35 PM 48.2 °F - 26.6 °F 43% 30.14 in 10.0 mi WNW 12.7 mph - N/A   Clear
12:55 PM 48.2 °F - 24.8 °F 40% 30.13 in 10.0 mi WNW 12.7 mph - N/A   Clear
1:15 PM 48.2 °F - 24.8 °F 40% 30.12 in 10.0 mi NW 10.4 mph - N/A   Clear
1:35 PM 51.8 °F - 26.6 °F 38% 30.10 in 10.0 mi NW 12.7 mph 18.4 mph N/A   Clear
1:55 PM 48.2 °F - 24.8 °F 40% 30.10 in 10.0 mi NW 12.7 mph - N/A   Clear
2:15 PM 51.8 °F - 26.6 °F 38% 30.09 in 10.0 mi NW 13.8 mph 19.6 mph N/A   Clear
2:35 PM 51.8 °F - 26.6 °F 38% 30.09 in 10.0 mi WNW 9.2 mph 21.9 mph N/A   Clear
2:55 PM 51.8 °F - 26.6 °F 38% 30.07 in 10.0 mi NW 9.2 mph - N/A   Scattered Clouds
3:15 PM 51.8 °F - 26.6 °F 38% 30.07 in 10.0 mi NNW 9.2 mph - N/A   Partly Cloudy
3:35 PM 51.8 °F - 24.8 °F 35% 30.07 in 10.0 mi NNW 10.4 mph - N/A   Clear
3:55 PM 51.8 °F - 24.8 °F 35% 30.07 in 10.0 mi NNW 9.2 mph - N/A   Clear
4:15 PM 51.8 °F - 23.0 °F 33% 30.06 in 10.0 mi West 5.8 mph - N/A   Clear
4:35 PM 51.8 °F - 23.0 °F 33% 30.05 in 10.0 mi NNW 3.5 mph - N/A   Clear
4:55 PM 51.8 °F - 23.0 °F 33% 30.04 in 10.0 mi NNW 6.9 mph - N/A   Clear
5:15 PM 50.0 °F - 24.8 °F 37% 30.04 in 10.0 mi NNW 5.8 mph - N/A   Clear
5:35 PM 48.2 °F - 28.4 °F 46% 30.03 in 10.0 mi North 5.8 mph - N/A   Clear
5:55 PM 46.4 °F 42.4 °F 26.6 °F 46% 30.03 in 10.0 mi NNE 8.1 mph - N/A   Clear
6:15 PM 44.6 °F 41.4 °F 30.2 °F 57% 30.03 in 10.0 mi NE 5.8 mph - N/A   Partly Cloudy
6:35 PM 42.8 °F 41.1 °F 28.4 °F 57% 30.03 in 10.0 mi East 3.5 mph - N/A   Clear
6:55 PM 44.6 °F 43.1 °F 24.8 °F 46% 30.03 in 10.0 mi East 3.5 mph - N/A   Mostly Cloudy
7:15 PM 44.6 °F 43.1 °F 24.8 °F 46% 30.03 in 10.0 mi East 3.5 mph - N/A   Overcast
7:35 PM 42.8 °F - 26.6 °F 53% 30.03 in 10.0 mi Calm Calm - N/A   Overcast
7:55 PM 44.6 °F - 24.8 °F 46% 30.03 in 10.0 mi Calm Calm - N/A   Overcast
8:15 PM 42.8 °F 39.3 °F 26.6 °F 53% 30.03 in 10.0 mi WSW 5.8 mph - N/A   Overcast
8:35 PM 42.8 °F 40.1 °F 26.6 °F 53% 30.03 in 10.0 mi WSW 4.6 mph - N/A   Overcast
8:55 PM 42.8 °F - 26.6 °F 53% 30.03 in 10.0 mi Calm Calm - N/A   Overcast
9:15 PM 42.8 °F 39.3 °F 26.6 °F 53% 30.03 in 10.0 mi SSW 5.8 mph - N/A   Overcast
9:35 PM 42.8 °F - 26.6 °F 53% 30.03 in 10.0 mi Calm Calm - N/A   Overcast
9:55 PM 41.0 °F 36.4 °F 26.6 °F 57% 30.03 in 10.0 mi WNW 6.9 mph - N/A   Overcast
10:15 PM 41.0 °F 36.4 °F 26.6 °F 57% 30.03 in 10.0 mi WNW 6.9 mph - N/A   Overcast
10:35 PM 41.0 °F 39.0 °F 26.6 °F 57% 30.04 in 10.0 mi West 3.5 mph - N/A   Overcast
10:55 PM 41.0 °F 37.1 °F 26.6 °F 57% 30.04 in 10.0 mi West 5.8 mph - N/A   Overcast
11:15 PM 41.0 °F 36.4 °F 26.6 °F 57% 30.04 in 10.0 mi West 6.9 mph - N/A   Overcast
11:35 PM 39.2 °F 35.0 °F 26.6 °F 61% 30.04 in 10.0 mi WNW 5.8 mph - N/A   Overcast
11:55 PM 39.2 °F 35.0 °F 26.6 °F 61% 30.04 in 10.0 mi WNW 5.8 mph - N/A   Overcast